{"data":{"norad_id":68018,"epoch":"2026-09-20T02:42:02.966976Z","epoch_age_seconds":93099,"freshness":"FRESH","line1":"1 68018U 26040D   26263.11253434  .00014866  00000+0  46181-3 0  9994","line2":"2 68018  97.2861 210.3855 0001837  93.2552 266.8901 15.33449312 31255","mean_motion":15.33449312,"eccentricity":0.0001837,"inclination_deg":97.2861,"raan_deg":210.3855,"arg_perigee_deg":93.2552,"mean_anomaly_deg":266.8901,"bstar":0.00046181,"rev_number":3125,"period_min":93.905940596229,"perigee_km":464.27316333866,"apogee_km":466.78752672123,"semimajor_km":6843.6673450299,"source":"CELESTRAK","updated_at":"2026-09-20T09:00:43.741818Z"}}